owner,sensor,date,latitude,longitude,vertical_datum,mass_concentration_of_oxygen_in_sea_water,qcFlag 
SCCF RECON,ioos:station:SCCF:53:1,2011-02-01T00:00:00Z,26.6493,-81.8810,1.99,7.85,1111122 
SCCF RECON,ioos:station:SCCF:53:1,2011-02-01T01:00:00Z,26.6493,-81.8810,1.992,7.66,1111122 
SCCF RECON,ioos:station:SCCF:53:1,2011-02-01T02:00:00Z,26.6493,-81.8810,2.041,7.72,1111122 
SCCF RECON,ioos:station:SCCF:53:1,2011-02-01T03:00:00Z,26.6493,-81.8810,2.1,7.73,1111122 
SCCF RECON,ioos:station:SCCF:53:1,2011-02-01T04:00:00Z,26.6493,-81.8810,2.14,7.4,1111122 
SCCF RECON,ioos:station:SCCF:53:1,2011-02-01T05:00:00Z,26.6493,-81.8810,2.19,7.44,1111122 
SCCF RECON,ioos:station:SCCF:53:1,2011-02-01T06:00:00Z,26.6493,-81.8810,2.24,7.39,1111122 
SCCF RECON,ioos:station:SCCF:53:1,2011-02-01T07:00:00Z,26.6493,-81.8810,2.25,7.48,1111122 
SCCF RECON,ioos:station:SCCF:53:1,2011-02-01T08:00:00Z,26.6493,-81.8810,2.2,7.48,1111122 
SCCF RECON,ioos:station:SCCF:53:1,2011-02-01T09:00:00Z,26.6493,-81.8810,2.14,7.73,1111122 
SCCF RECON,ioos:station:SCCF:53:1,2011-02-01T10:00:00Z,26.6493,-81.8810,2.09,7.51,1111122 
SCCF RECON,ioos:station:SCCF:53:1,2011-02-01T11:00:00Z,26.6493,-81.8810,2.033,7.45,1111122 
SCCF RECON,ioos:station:SCCF:53:1,2011-02-01T12:00:00Z,26.6493,-81.8810,1.986,7.41,1111122 
SCCF RECON,ioos:station:SCCF:53:1,2011-02-01T13:00:00Z,26.6493,-81.8810,1.94,7.33,1111122 
SCCF RECON,ioos:station:SCCF:53:1,2011-02-01T14:00:00Z,26.6493,-81.8810,1.898,7.37,1111122 
SCCF RECON,ioos:station:SCCF:53:1,2011-02-01T15:00:00Z,26.6493,-81.8810,1.865,7.22,1111122 
SCCF RECON,ioos:station:SCCF:53:1,2011-02-01T16:00:00Z,26.6493,-81.8810,1.86,7.47,1111122 
SCCF RECON,ioos:station:SCCF:53:1,2011-02-01T17:00:00Z,26.6493,-81.8810,1.885,7.3,1111122 
SCCF RECON,ioos:station:SCCF:53:1,2011-02-01T18:00:00Z,26.6493,-81.8810,1.918,7.67,1111122 
SCCF RECON,ioos:station:SCCF:53:1,2011-02-01T19:00:00Z,26.6493,-81.8810,1.959,7.43,1111122 
SCCF RECON,ioos:station:SCCF:53:1,2011-02-01T20:00:00Z,26.6493,-81.8810,2.0,7.56,1111122 
SCCF RECON,ioos:station:SCCF:53:1,2011-02-01T21:00:00Z,26.6493,-81.8810,2.032,7.69,1111122 
SCCF RECON,ioos:station:SCCF:53:1,2011-02-01T22:00:00Z,26.6493,-81.8810,2.058,7.96,1111122 
SCCF RECON,ioos:station:SCCF:53:1,2011-02-01T23:00:00Z,26.6493,-81.8810,2.075,8.13,1111122 
SCCF RECON,ioos:station:SCCF:53:1,2011-02-02T00:00:00Z,26.6493,-81.8810,2.072,7.97,1111122 
SCCF RECON,ioos:station:SCCF:53:1,2011-02-02T01:00:00Z,26.6493,-81.8810,2.06,7.69,1111122 
SCCF RECON,ioos:station:SCCF:53:1,2011-02-02T02:00:00Z,26.6493,-81.8810,2.07,7.46,1111122 
SCCF RECON,ioos:station:SCCF:53:1,2011-02-02T03:00:00Z,26.6493,-81.8810,2.12,7.86,1111122 
SCCF RECON,ioos:station:SCCF:53:1,2011-02-02T04:00:00Z,26.6493,-81.8810,2.17,7.76,1111122 
SCCF RECON,ioos:station:SCCF:53:1,2011-02-02T05:00:00Z,26.6493,-81.8810,2.23,7.92,1111122 
SCCF RECON,ioos:station:SCCF:53:1,2011-02-02T06:00:00Z,26.6493,-81.8810,2.28,7.74,1111122 
SCCF RECON,ioos:station:SCCF:53:1,2011-02-02T07:00:00Z,26.6493,-81.8810,2.32,7.72,1111122 
SCCF RECON,ioos:station:SCCF:53:1,2011-02-02T08:00:00Z,26.6493,-81.8810,2.31,7.81,1111122 
SCCF RECON,ioos:station:SCCF:53:1,2011-02-02T09:00:00Z,26.6493,-81.8810,2.25,7.73,1111122 
SCCF RECON,ioos:station:SCCF:53:1,2011-02-02T10:00:00Z,26.6493,-81.8810,2.2,7.82,1111122 
SCCF RECON,ioos:station:SCCF:53:1,2011-02-02T11:00:00Z,26.6493,-81.8810,2.148,7.44,1111122 
SCCF RECON,ioos:station:SCCF:53:1,2011-02-02T12:00:00Z,26.6493,-81.8810,2.1,7.31,1111122 
SCCF RECON,ioos:station:SCCF:53:1,2011-02-02T13:00:00Z,26.6493,-81.8810,2.05,7.18,1111122 
SCCF RECON,ioos:station:SCCF:53:1,2011-02-02T14:00:00Z,26.6493,-81.8810,2.001,7.23,1111122 
SCCF RECON,ioos:station:SCCF:53:1,2011-02-02T15:00:00Z,26.6493,-81.8810,1.97,7.25,1111122 
SCCF RECON,ioos:station:SCCF:53:1,2011-02-02T16:00:00Z,26.6493,-81.8810,1.961,7.39,1111122 
SCCF RECON,ioos:station:SCCF:53:1,2011-02-02T17:00:00Z,26.6493,-81.8810,1.986,6.99,1111122 
SCCF RECON,ioos:station:SCCF:53:1,2011-02-02T19:00:00Z,26.6493,-81.8810,2.065,7.66,1111122 
SCCF RECON,ioos:station:SCCF:53:1,2011-02-02T20:00:00Z,26.6493,-81.8810,2.107,7.72,1111122 
SCCF RECON,ioos:station:SCCF:53:1,2011-02-02T21:00:00Z,26.6493,-81.8810,2.139,7.76,1111122 
SCCF RECON,ioos:station:SCCF:53:1,2011-02-02T22:00:00Z,26.6493,-81.8810,2.149,7.78,1111122 
SCCF RECON,ioos:station:SCCF:53:1,2011-02-02T23:00:00Z,26.6493,-81.8810,2.118,7.74,1111122 
SCCF RECON,ioos:station:SCCF:53:1,2011-02-03T00:00:00Z,26.6493,-81.8810,2.078,7.55,1111122 
SCCF RECON,ioos:station:SCCF:53:1,2011-02-03T01:00:00Z,26.6493,-81.8810,2.04,7.68,1111122 
SCCF RECON,ioos:station:SCCF:53:1,2011-02-03T02:00:00Z,26.6493,-81.8810,2.009,7.52,1111122 
SCCF RECON,ioos:station:SCCF:53:1,2011-02-03T03:00:00Z,26.6493,-81.8810,1.99,7.48,1111122 
SCCF RECON,ioos:station:SCCF:53:1,2011-02-03T04:00:00Z,26.6493,-81.8810,2.02,7.33,1111122 
SCCF RECON,ioos:station:SCCF:53:1,2011-02-03T05:00:00Z,26.6493,-81.8810,2.07,7.41,1111122 
SCCF RECON,ioos:station:SCCF:53:1,2011-02-03T06:00:00Z,26.6493,-81.8810,2.12,7.48,1111122 
SCCF RECON,ioos:station:SCCF:53:1,2011-02-03T07:00:00Z,26.6493,-81.8810,2.17,7.34,1111122 
SCCF RECON,ioos:station:SCCF:53:1,2011-02-03T08:00:00Z,26.6493,-81.8810,2.19,7.39,1111122 
SCCF RECON,ioos:station:SCCF:53:1,2011-02-03T09:00:00Z,26.6493,-81.8810,2.171,7.37,1111122 
SCCF RECON,ioos:station:SCCF:53:1,2011-02-03T10:00:00Z,26.6493,-81.8810,2.129,7.55,1111122 
SCCF RECON,ioos:station:SCCF:53:1,2011-02-03T11:00:00Z,26.6493,-81.8810,2.08,7.63,1111122 
SCCF RECON,ioos:station:SCCF:53:1,2011-02-03T12:00:00Z,26.6493,-81.8810,2.04,7.21,1111122 
SCCF RECON,ioos:station:SCCF:53:1,2011-02-03T13:00:00Z,26.6493,-81.8810,2.0,7.11,1111122 
SCCF RECON,ioos:station:SCCF:53:1,2011-02-03T14:00:00Z,26.6493,-81.8810,1.96,7.08,1111122 
SCCF RECON,ioos:station:SCCF:53:1,2011-02-03T15:00:00Z,26.6493,-81.8810,1.913,7.09,1111122 
SCCF RECON,ioos:station:SCCF:53:1,2011-02-03T16:00:00Z,26.6493,-81.8810,1.872,6.87,1111122 
SCCF RECON,ioos:station:SCCF:53:1,2011-02-03T17:00:00Z,26.6493,-81.8810,1.86,6.91,1111122 
SCCF RECON,ioos:station:SCCF:53:1,2011-02-03T18:00:00Z,26.6493,-81.8810,1.883,7.15,1111122 
SCCF RECON,ioos:station:SCCF:53:1,2011-02-03T19:00:00Z,26.6493,-81.8810,1.92,7.21,1111122 
SCCF RECON,ioos:station:SCCF:53:1,2011-02-03T20:00:00Z,26.6493,-81.8810,1.956,7.4,1111122 
SCCF RECON,ioos:station:SCCF:53:1,2011-02-03T21:00:00Z,26.6493,-81.8810,2.0,7.31,1111122 
SCCF RECON,ioos:station:SCCF:53:1,2011-02-03T22:00:00Z,26.6493,-81.8810,2.02,6.77,1111122 
SCCF RECON,ioos:station:SCCF:53:1,2011-02-03T23:00:00Z,26.6493,-81.8810,2.0,7.38,1111122 
SCCF RECON,ioos:station:SCCF:53:1,2011-02-04T00:00:00Z,26.6493,-81.8810,1.97,7.4,1111122 
SCCF RECON,ioos:station:SCCF:53:1,2011-02-04T01:00:00Z,26.6493,-81.8810,1.94,7.24,1111122 
SCCF RECON,ioos:station:SCCF:53:1,2011-02-04T02:00:00Z,26.6493,-81.8810,1.91,7.19,1111122 
SCCF RECON,ioos:station:SCCF:53:1,2011-02-04T03:00:00Z,26.6493,-81.8810,1.9,7.09,1111122 
SCCF RECON,ioos:station:SCCF:53:1,2011-02-04T04:00:00Z,26.6493,-81.8810,1.95,7.03,1111122 
SCCF RECON,ioos:station:SCCF:53:1,2011-02-04T05:00:00Z,26.6493,-81.8810,2.0,7.28,1111122 
SCCF RECON,ioos:station:SCCF:53:1,2011-02-04T06:00:00Z,26.6493,-81.8810,2.05,7.36,1111122 
SCCF RECON,ioos:station:SCCF:53:1,2011-02-04T07:00:00Z,26.6493,-81.8810,2.101,7.36,1111122 
SCCF RECON,ioos:station:SCCF:53:1,2011-02-04T08:00:00Z,26.6493,-81.8810,2.15,7.11,1111122 
SCCF RECON,ioos:station:SCCF:53:1,2011-02-04T09:00:00Z,26.6493,-81.8810,2.18,7.24,1111122 
SCCF RECON,ioos:station:SCCF:53:1,2011-02-04T10:00:00Z,26.6493,-81.8810,2.16,7.17,1111122 
SCCF RECON,ioos:station:SCCF:53:1,2011-02-04T11:00:00Z,26.6493,-81.8810,2.11,7.06,1111122 
SCCF RECON,ioos:station:SCCF:53:1,2011-02-04T12:00:00Z,26.6493,-81.8810,2.06,7.14,1111122 
SCCF RECON,ioos:station:SCCF:53:1,2011-02-04T13:00:00Z,26.6493,-81.8810,2.02,6.78,1111122 
SCCF RECON,ioos:station:SCCF:53:1,2011-02-04T14:00:00Z,26.6493,-81.8810,1.97,6.61,1111122 
SCCF RECON,ioos:station:SCCF:53:1,2011-02-04T15:00:00Z,26.6493,-81.8810,1.937,6.6,1111122 
SCCF RECON,ioos:station:SCCF:53:1,2011-02-04T16:00:00Z,26.6493,-81.8810,1.899,6.43,1111122 
SCCF RECON,ioos:station:SCCF:53:1,2011-02-04T17:00:00Z,26.6493,-81.8810,1.875,6.35,1111122 
SCCF RECON,ioos:station:SCCF:53:1,2011-02-04T18:00:00Z,26.6493,-81.8810,1.897,6.59,1111122 
SCCF RECON,ioos:station:SCCF:53:1,2011-02-04T19:00:00Z,26.6493,-81.8810,1.928,6.71,1111122 
SCCF RECON,ioos:station:SCCF:53:1,2011-02-04T20:00:00Z,26.6493,-81.8810,1.967,7.01,1111122 
SCCF RECON,ioos:station:SCCF:53:1,2011-02-04T21:00:00Z,26.6493,-81.8810,2.001,7.35,1111122 
SCCF RECON,ioos:station:SCCF:53:1,2011-02-04T22:00:00Z,26.6493,-81.8810,2.03,7.53,1111122 
SCCF RECON,ioos:station:SCCF:53:1,2011-02-04T23:00:00Z,26.6493,-81.8810,2.023,7.51,1111122 
SCCF RECON,ioos:station:SCCF:53:1,2011-02-05T00:00:00Z,26.6493,-81.8810,1.986,7.59,1111122 
SCCF RECON,ioos:station:SCCF:53:1,2011-02-05T01:00:00Z,26.6493,-81.8810,1.946,7.51,1111122 
SCCF RECON,ioos:station:SCCF:53:1,2011-02-05T02:00:00Z,26.6493,-81.8810,1.91,7.14,1111122 
SCCF RECON,ioos:station:SCCF:53:1,2011-02-05T03:00:00Z,26.6493,-81.8810,1.88,7.16,1111122 
SCCF RECON,ioos:station:SCCF:53:1,2011-02-05T04:00:00Z,26.6493,-81.8810,1.867,7.16,1111122 
SCCF RECON,ioos:station:SCCF:53:1,2011-02-05T05:00:00Z,26.6493,-81.8810,1.911,7.13,1111122 
SCCF RECON,ioos:station:SCCF:53:1,2011-02-05T06:00:00Z,26.6493,-81.8810,1.96,7.04,1111122 
SCCF RECON,ioos:station:SCCF:53:1,2011-02-05T07:00:00Z,26.6493,-81.8810,2.01,7.09,1111122 
SCCF RECON,ioos:station:SCCF:53:1,2011-02-05T08:00:00Z,26.6493,-81.8810,2.07,7.09,1111122 
SCCF RECON,ioos:station:SCCF:53:1,2011-02-05T09:00:00Z,26.6493,-81.8810,2.11,7.22,1111122 
SCCF RECON,ioos:station:SCCF:53:1,2011-02-05T10:00:00Z,26.6493,-81.8810,2.126,7.07,1111122 
SCCF RECON,ioos:station:SCCF:53:1,2011-02-05T11:00:00Z,26.6493,-81.8810,2.09,6.92,1111122 
SCCF RECON,ioos:station:SCCF:53:1,2011-02-05T12:00:00Z,26.6493,-81.8810,2.05,6.8,1111122 
SCCF RECON,ioos:station:SCCF:53:1,2011-02-05T13:00:00Z,26.6493,-81.8810,2.008,6.69,1111122 
SCCF RECON,ioos:station:SCCF:53:1,2011-02-05T14:00:00Z,26.6493,-81.8810,1.96,6.7,1111122 
SCCF RECON,ioos:station:SCCF:53:1,2011-02-05T15:00:00Z,26.6493,-81.8810,1.92,6.62,1111122 
SCCF RECON,ioos:station:SCCF:53:1,2011-02-05T16:00:00Z,26.6493,-81.8810,1.882,6.45,1111122 
SCCF RECON,ioos:station:SCCF:53:1,2011-02-05T17:00:00Z,26.6493,-81.8810,1.868,6.32,1111122 
SCCF RECON,ioos:station:SCCF:53:1,2011-02-05T18:00:00Z,26.6493,-81.8810,1.912,6.63,1111122 
SCCF RECON,ioos:station:SCCF:53:1,2011-02-05T19:00:00Z,26.6493,-81.8810,1.955,6.97,1111122 
SCCF RECON,ioos:station:SCCF:53:1,2011-02-05T20:00:00Z,26.6493,-81.8810,1.996,7.11,1111122 
SCCF RECON,ioos:station:SCCF:53:1,2011-02-05T21:00:00Z,26.6493,-81.8810,2.046,7.16,1111122 
SCCF RECON,ioos:station:SCCF:53:1,2011-02-05T22:00:00Z,26.6493,-81.8810,2.084,7.02,1111122 
SCCF RECON,ioos:station:SCCF:53:1,2011-02-05T23:00:00Z,26.6493,-81.8810,2.086,7.22,1111122 
SCCF RECON,ioos:station:SCCF:53:1,2011-02-06T00:00:00Z,26.6493,-81.8810,2.05,7.13,1111122 
SCCF RECON,ioos:station:SCCF:53:1,2011-02-06T01:00:00Z,26.6493,-81.8810,2.011,7.03,1111122 
SCCF RECON,ioos:station:SCCF:53:1,2011-02-06T02:00:00Z,26.6493,-81.8810,1.972,6.97,1111122 
SCCF RECON,ioos:station:SCCF:53:1,2011-02-06T03:00:00Z,26.6493,-81.8810,1.932,6.92,1111122 
SCCF RECON,ioos:station:SCCF:53:1,2011-02-06T04:00:00Z,26.6493,-81.8810,1.9,6.8,1111122 
SCCF RECON,ioos:station:SCCF:53:1,2011-02-06T05:00:00Z,26.6493,-81.8810,1.89,6.78,1111122 
SCCF RECON,ioos:station:SCCF:53:1,2011-02-06T06:00:00Z,26.6493,-81.8810,1.93,6.46,1111122 
SCCF RECON,ioos:station:SCCF:53:1,2011-02-06T07:00:00Z,26.6493,-81.8810,1.97,6.42,1111122 
SCCF RECON,ioos:station:SCCF:53:1,2011-02-06T08:00:00Z,26.6493,-81.8810,2.01,6.57,1111122 
SCCF RECON,ioos:station:SCCF:53:1,2011-02-06T09:00:00Z,26.6493,-81.8810,2.06,6.55,1111122 
SCCF RECON,ioos:station:SCCF:53:1,2011-02-06T10:00:00Z,26.6493,-81.8810,2.08,6.48,1111122 
SCCF RECON,ioos:station:SCCF:53:1,2011-02-06T11:00:00Z,26.6493,-81.8810,2.07,6.39,1111122 
SCCF RECON,ioos:station:SCCF:53:1,2011-02-06T12:00:00Z,26.6493,-81.8810,2.03,6.52,1111122 
SCCF RECON,ioos:station:SCCF:53:1,2011-02-06T13:00:00Z,26.6493,-81.8810,1.99,6.45,1111122 
SCCF RECON,ioos:station:SCCF:53:1,2011-02-06T14:00:00Z,26.6493,-81.8810,1.955,6.36,1111122 
SCCF RECON,ioos:station:SCCF:53:1,2011-02-06T15:00:00Z,26.6493,-81.8810,1.914,6.27,1111122 
SCCF RECON,ioos:station:SCCF:53:1,2011-02-06T16:00:00Z,26.6493,-81.8810,1.87,6.44,1111122 
SCCF RECON,ioos:station:SCCF:53:1,2011-02-06T17:00:00Z,26.6493,-81.8810,1.83,6.43,1111122 
SCCF RECON,ioos:station:SCCF:53:1,2011-02-06T18:00:00Z,26.6493,-81.8810,1.819,6.51,1111122 
SCCF RECON,ioos:station:SCCF:53:1,2011-02-06T19:00:00Z,26.6493,-81.8810,1.86,6.51,1111122 
SCCF RECON,ioos:station:SCCF:53:1,2011-02-06T20:00:00Z,26.6493,-81.8810,1.897,6.62,1111122 
SCCF RECON,ioos:station:SCCF:53:1,2011-02-06T21:00:00Z,26.6493,-81.8810,1.94,6.67,1111122 
SCCF RECON,ioos:station:SCCF:53:1,2011-02-06T22:00:00Z,26.6493,-81.8810,1.989,6.72,1111122 
SCCF RECON,ioos:station:SCCF:53:1,2011-02-06T23:00:00Z,26.6493,-81.8810,2.01,6.73,1111122 
SCCF RECON,ioos:station:SCCF:53:1,2011-02-07T00:00:00Z,26.6493,-81.8810,1.99,6.42,1111122 
SCCF RECON,ioos:station:SCCF:53:1,2011-02-07T01:00:00Z,26.6493,-81.8810,1.95,5.98,1111122 
SCCF RECON,ioos:station:SCCF:53:1,2011-02-07T02:00:00Z,26.6493,-81.8810,1.91,6.52,1111122 
SCCF RECON,ioos:station:SCCF:53:1,2011-02-07T03:00:00Z,26.6493,-81.8810,1.87,6.01,1111122 
SCCF RECON,ioos:station:SCCF:53:1,2011-02-07T04:00:00Z,26.6493,-81.8810,1.84,6.17,1111122 
SCCF RECON,ioos:station:SCCF:53:1,2011-02-07T05:00:00Z,26.6493,-81.8810,1.81,6.47,1111122 
SCCF RECON,ioos:station:SCCF:53:1,2011-02-07T06:00:00Z,26.6493,-81.8810,1.831,6.34,1111122 
SCCF RECON,ioos:station:SCCF:53:1,2011-02-07T07:00:00Z,26.6493,-81.8810,1.881,6.37,1111122 
SCCF RECON,ioos:station:SCCF:53:1,2011-02-07T08:00:00Z,26.6493,-81.8810,1.92,6.43,1111122 
SCCF RECON,ioos:station:SCCF:53:1,2011-02-07T09:00:00Z,26.6493,-81.8810,1.97,6.45,1111122 
SCCF RECON,ioos:station:SCCF:53:1,2011-02-07T10:00:00Z,26.6493,-81.8810,2.01,6.38,1111122 
SCCF RECON,ioos:station:SCCF:53:1,2011-02-07T11:00:00Z,26.6493,-81.8810,2.039,6.26,1111122 
SCCF RECON,ioos:station:SCCF:53:1,2011-02-07T12:00:00Z,26.6493,-81.8810,2.02,6.18,1111122 
SCCF RECON,ioos:station:SCCF:53:1,2011-02-07T13:00:00Z,26.6493,-81.8810,1.98,6.33,1111122 
SCCF RECON,ioos:station:SCCF:53:1,2011-02-07T14:00:00Z,26.6493,-81.8810,1.95,5.64,1111122 
SCCF RECON,ioos:station:SCCF:53:1,2011-02-07T15:00:00Z,26.6493,-81.8810,1.926,5.86,1111122 
SCCF RECON,ioos:station:SCCF:53:1,2011-02-07T16:00:00Z,26.6493,-81.8810,1.904,5.92,1111122 
SCCF RECON,ioos:station:SCCF:53:1,2011-02-07T17:00:00Z,26.6493,-81.8810,1.895,5.66,1111122 
SCCF RECON,ioos:station:SCCF:53:1,2011-02-07T18:00:00Z,26.6493,-81.8810,1.94,6.3,1111122 
SCCF RECON,ioos:station:SCCF:53:1,2011-02-07T19:00:00Z,26.6493,-81.8810,1.987,7.19,1111122 
SCCF RECON,ioos:station:SCCF:53:1,2011-02-07T20:00:00Z,26.6493,-81.8810,2.04,7.23,1111122 
SCCF RECON,ioos:station:SCCF:53:1,2011-02-07T21:00:00Z,26.6493,-81.8810,2.099,7.23,1111122 
SCCF RECON,ioos:station:SCCF:53:1,2011-02-07T22:00:00Z,26.6493,-81.8810,2.158,7.26,1111122 
SCCF RECON,ioos:station:SCCF:53:1,2011-02-07T23:00:00Z,26.6493,-81.8810,2.202,7.24,1111122 
SCCF RECON,ioos:station:SCCF:53:1,2011-02-08T00:00:00Z,26.6493,-81.8810,2.229,7.29,1111122 
SCCF RECON,ioos:station:SCCF:53:1,2011-02-08T01:00:00Z,26.6493,-81.8810,2.226,7.21,1111122 
SCCF RECON,ioos:station:SCCF:53:1,2011-02-08T02:00:00Z,26.6493,-81.8810,2.182,7.13,1111122 
SCCF RECON,ioos:station:SCCF:53:1,2011-02-08T03:00:00Z,26.6493,-81.8810,2.14,6.99,1111122 
SCCF RECON,ioos:station:SCCF:53:1,2011-02-08T04:00:00Z,26.6493,-81.8810,2.08,6.79,1111122 
SCCF RECON,ioos:station:SCCF:53:1,2011-02-08T05:00:00Z,26.6493,-81.8810,2.03,6.69,1111122 
SCCF RECON,ioos:station:SCCF:53:1,2011-02-08T06:00:00Z,26.6493,-81.8810,1.99,6.67,1111122 
SCCF RECON,ioos:station:SCCF:53:1,2011-02-08T07:00:00Z,26.6493,-81.8810,1.96,6.54,1111122 
SCCF RECON,ioos:station:SCCF:53:1,2011-02-08T08:00:00Z,26.6493,-81.8810,1.96,6.38,1111122 
SCCF RECON,ioos:station:SCCF:53:1,2011-02-08T09:00:00Z,26.6493,-81.8810,1.97,6.68,1111122 
SCCF RECON,ioos:station:SCCF:53:1,2011-02-08T10:00:00Z,26.6493,-81.8810,1.97,6.17,1111122 
SCCF RECON,ioos:station:SCCF:53:1,2011-02-08T11:00:00Z,26.6493,-81.8810,1.99,6.6,1111122 
SCCF RECON,ioos:station:SCCF:53:1,2011-02-08T12:00:00Z,26.6493,-81.8810,1.96,6.78,1111122 
SCCF RECON,ioos:station:SCCF:53:1,2011-02-08T13:00:00Z,26.6493,-81.8810,1.93,6.74,1111122 
SCCF RECON,ioos:station:SCCF:53:1,2011-02-08T14:00:00Z,26.6493,-81.8810,1.9,6.81,1111122 
SCCF RECON,ioos:station:SCCF:53:1,2011-02-08T15:00:00Z,26.6493,-81.8810,1.87,6.89,1111122 
SCCF RECON,ioos:station:SCCF:53:1,2011-02-08T16:00:00Z,26.6493,-81.8810,1.839,6.71,1111122 
SCCF RECON,ioos:station:SCCF:53:1,2011-02-08T17:00:00Z,26.6493,-81.8810,1.817,6.69,1111122 
SCCF RECON,ioos:station:SCCF:53:1,2011-02-08T18:00:00Z,26.6493,-81.8810,1.827,6.83,1111122 
SCCF RECON,ioos:station:SCCF:53:1,2011-02-08T19:00:00Z,26.6493,-81.8810,1.869,6.71,1111122 
SCCF RECON,ioos:station:SCCF:53:1,2011-02-08T20:00:00Z,26.6493,-81.8810,1.922,6.96,1111122 
SCCF RECON,ioos:station:SCCF:53:1,2011-02-08T21:00:00Z,26.6493,-81.8810,1.96,7.29,1111122 
SCCF RECON,ioos:station:SCCF:53:1,2011-02-08T22:00:00Z,26.6493,-81.8810,1.999,7.47,1111122 
SCCF RECON,ioos:station:SCCF:53:1,2011-02-08T23:00:00Z,26.6493,-81.8810,2.022,7.53,1111122 
SCCF RECON,ioos:station:SCCF:53:1,2011-02-09T00:00:00Z,26.6493,-81.8810,2.034,7.54,1111122 
SCCF RECON,ioos:station:SCCF:53:1,2011-02-09T01:00:00Z,26.6493,-81.8810,2.009,7.63,1111122 
SCCF RECON,ioos:station:SCCF:53:1,2011-02-09T02:00:00Z,26.6493,-81.8810,1.977,7.64,1111122 
SCCF RECON,ioos:station:SCCF:53:1,2011-02-09T03:00:00Z,26.6493,-81.8810,1.94,7.58,1111122 
SCCF RECON,ioos:station:SCCF:53:1,2011-02-09T04:00:00Z,26.6493,-81.8810,1.9,7.51,1111122 
SCCF RECON,ioos:station:SCCF:53:1,2011-02-09T05:00:00Z,26.6493,-81.8810,1.85,7.39,1111122 
SCCF RECON,ioos:station:SCCF:53:1,2011-02-09T06:00:00Z,26.6493,-81.8810,1.802,7.35,1111122 
SCCF RECON,ioos:station:SCCF:53:1,2011-02-09T07:00:00Z,26.6493,-81.8810,1.77,7.25,1111122 
SCCF RECON,ioos:station:SCCF:53:1,2011-02-09T08:00:00Z,26.6493,-81.8810,1.74,7.23,1111122 
SCCF RECON,ioos:station:SCCF:53:1,2011-02-09T09:00:00Z,26.6493,-81.8810,1.75,7.21,1111122 
SCCF RECON,ioos:station:SCCF:53:1,2011-02-09T10:00:00Z,26.6493,-81.8810,1.78,7.27,1111122 
SCCF RECON,ioos:station:SCCF:53:1,2011-02-09T11:00:00Z,26.6493,-81.8810,1.792,7.04,1111122 
SCCF RECON,ioos:station:SCCF:53:1,2011-02-09T12:00:00Z,26.6493,-81.8810,1.806,7.14,1111122 
SCCF RECON,ioos:station:SCCF:53:1,2011-02-09T13:00:00Z,26.6493,-81.8810,1.797,6.43,1111122 
SCCF RECON,ioos:station:SCCF:53:1,2011-02-09T14:00:00Z,26.6493,-81.8810,1.772,6.96,1111122 
SCCF RECON,ioos:station:SCCF:53:1,2011-02-09T15:00:00Z,26.6493,-81.8810,1.75,7.23,1111122 
SCCF RECON,ioos:station:SCCF:53:1,2011-02-09T16:00:00Z,26.6493,-81.8810,1.723,7.34,1111122 
SCCF RECON,ioos:station:SCCF:53:1,2011-02-09T17:00:00Z,26.6493,-81.8810,1.699,7.47,1111122 
SCCF RECON,ioos:station:SCCF:53:1,2011-02-09T18:00:00Z,26.6493,-81.8810,1.709,7.42,1111122 
SCCF RECON,ioos:station:SCCF:53:1,2011-02-09T19:00:00Z,26.6493,-81.8810,1.75,7.76,1111122 
SCCF RECON,ioos:station:SCCF:53:1,2011-02-09T20:00:00Z,26.6493,-81.8810,1.792,7.96,1111122 
SCCF RECON,ioos:station:SCCF:53:1,2011-02-09T21:00:00Z,26.6493,-81.8810,1.839,7.91,1111122 
SCCF RECON,ioos:station:SCCF:53:1,2011-02-09T22:00:00Z,26.6493,-81.8810,1.901,7.97,1111122 
SCCF RECON,ioos:station:SCCF:53:1,2011-02-09T23:00:00Z,26.6493,-81.8810,1.952,7.9,1111122 
SCCF RECON,ioos:station:SCCF:53:1,2011-02-10T00:00:00Z,26.6493,-81.8810,1.995,7.89,1111122 
SCCF RECON,ioos:station:SCCF:53:1,2011-02-10T01:00:00Z,26.6493,-81.8810,2.03,7.82,1111122 
SCCF RECON,ioos:station:SCCF:53:1,2011-02-10T02:00:00Z,26.6493,-81.8810,2.02,7.72,1111122 
SCCF RECON,ioos:station:SCCF:53:1,2011-02-10T03:00:00Z,26.6493,-81.8810,1.98,7.7,1111122 
SCCF RECON,ioos:station:SCCF:53:1,2011-02-10T04:00:00Z,26.6493,-81.8810,1.93,7.74,1111122 
SCCF RECON,ioos:station:SCCF:53:1,2011-02-10T05:00:00Z,26.6493,-81.8810,1.88,7.68,1111122 
SCCF RECON,ioos:station:SCCF:53:1,2011-02-10T06:00:00Z,26.6493,-81.8810,1.83,7.37,1111122 
SCCF RECON,ioos:station:SCCF:53:1,2011-02-10T07:00:00Z,26.6493,-81.8810,1.79,7.44,1111122 
SCCF RECON,ioos:station:SCCF:53:1,2011-02-10T08:00:00Z,26.6493,-81.8810,1.772,7.32,1111122 
SCCF RECON,ioos:station:SCCF:53:1,2011-02-10T09:00:00Z,26.6493,-81.8810,1.78,7.38,1111122 
SCCF RECON,ioos:station:SCCF:53:1,2011-02-10T10:00:00Z,26.6493,-81.8810,1.81,7.18,1111122 
SCCF RECON,ioos:station:SCCF:53:1,2011-02-10T11:00:00Z,26.6493,-81.8810,1.85,7.22,1111122 
SCCF RECON,ioos:station:SCCF:53:1,2011-02-10T12:00:00Z,26.6493,-81.8810,1.89,7.0,1111122 
SCCF RECON,ioos:station:SCCF:53:1,2011-02-10T13:00:00Z,26.6493,-81.8810,1.92,7.06,1111122 
SCCF RECON,ioos:station:SCCF:53:1,2011-02-10T14:00:00Z,26.6493,-81.8810,1.946,7.06,1111122 
SCCF RECON,ioos:station:SCCF:53:1,2011-02-10T15:00:00Z,26.6493,-81.8810,1.968,7.24,1111122 
SCCF RECON,ioos:station:SCCF:53:1,2011-02-10T16:00:00Z,26.6493,-81.8810,1.976,7.19,1111122 
SCCF RECON,ioos:station:SCCF:53:1,2011-02-10T17:00:00Z,26.6493,-81.8810,1.979,7.13,1111122 
SCCF RECON,ioos:station:SCCF:53:1,2011-02-10T18:00:00Z,26.6493,-81.8810,2.001,7.23,1111122 
SCCF RECON,ioos:station:SCCF:53:1,2011-02-10T19:00:00Z,26.6493,-81.8810,2.03,6.73,1111122 
SCCF RECON,ioos:station:SCCF:53:1,2011-02-10T20:00:00Z,26.6493,-81.8810,2.058,7.47,1111122 
SCCF RECON,ioos:station:SCCF:53:1,2011-02-10T21:00:00Z,26.6493,-81.8810,2.08,7.69,1111122 
SCCF RECON,ioos:station:SCCF:53:1,2011-02-10T22:00:00Z,26.6493,-81.8810,2.115,7.65,1111122 
SCCF RECON,ioos:station:SCCF:53:1,2011-02-10T23:00:00Z,26.6493,-81.8810,2.166,7.6,1111122 
SCCF RECON,ioos:station:SCCF:53:1,2011-02-11T00:00:00Z,26.6493,-81.8810,2.21,7.67,1111122 
SCCF RECON,ioos:station:SCCF:53:1,2011-02-11T01:00:00Z,26.6493,-81.8810,2.24,7.53,1111122 
SCCF RECON,ioos:station:SCCF:53:1,2011-02-11T02:00:00Z,26.6493,-81.8810,2.19,7.65,1111122 
SCCF RECON,ioos:station:SCCF:53:1,2011-02-11T03:00:00Z,26.6493,-81.8810,2.14,7.51,1111122 
SCCF RECON,ioos:station:SCCF:53:1,2011-02-11T04:00:00Z,26.6493,-81.8810,2.09,7.37,1111122 
SCCF RECON,ioos:station:SCCF:53:1,2011-02-11T05:00:00Z,26.6493,-81.8810,2.03,7.22,1111122 
SCCF RECON,ioos:station:SCCF:53:1,2011-02-11T06:00:00Z,26.6493,-81.8810,1.99,7.2,1111122 
SCCF RECON,ioos:station:SCCF:53:1,2011-02-11T07:00:00Z,26.6493,-81.8810,1.931,7.1,1111122 
SCCF RECON,ioos:station:SCCF:53:1,2011-02-11T08:00:00Z,26.6493,-81.8810,1.884,7.12,1111122 
SCCF RECON,ioos:station:SCCF:53:1,2011-02-11T09:00:00Z,26.6493,-81.8810,1.84,6.88,1111122 
SCCF RECON,ioos:station:SCCF:53:1,2011-02-11T10:00:00Z,26.6493,-81.8810,1.804,6.74,1111122 
SCCF RECON,ioos:station:SCCF:53:1,2011-02-11T11:00:00Z,26.6493,-81.8810,1.8,6.78,1111122 
SCCF RECON,ioos:station:SCCF:53:1,2011-02-11T12:00:00Z,26.6493,-81.8810,1.81,6.75,1111122 
SCCF RECON,ioos:station:SCCF:53:1,2011-02-11T13:00:00Z,26.6493,-81.8810,1.84,6.71,1111122 
SCCF RECON,ioos:station:SCCF:53:1,2011-02-11T14:00:00Z,26.6493,-81.8810,1.885,6.64,1111122 
SCCF RECON,ioos:station:SCCF:53:1,2011-02-11T15:00:00Z,26.6493,-81.8810,1.921,6.57,1111122 
SCCF RECON,ioos:station:SCCF:53:1,2011-02-11T16:00:00Z,26.6493,-81.8810,1.93,6.28,1111122 
SCCF RECON,ioos:station:SCCF:53:1,2011-02-11T17:00:00Z,26.6493,-81.8810,1.92,6.23,1111122 
SCCF RECON,ioos:station:SCCF:53:1,2011-02-11T18:00:00Z,26.6493,-81.8810,1.899,6.51,1111122 
SCCF RECON,ioos:station:SCCF:53:1,2011-02-11T19:00:00Z,26.6493,-81.8810,1.879,6.53,1111122 
SCCF RECON,ioos:station:SCCF:53:1,2011-02-11T20:00:00Z,26.6493,-81.8810,1.88,6.99,1111122 
SCCF RECON,ioos:station:SCCF:53:1,2011-02-11T21:00:00Z,26.6493,-81.8810,1.884,6.97,1111122 